Time,TemperatureF,DewpointF,PressureIn,WindDirection,WindDirectionDegrees,WindSpeedMPH,WindSpeedGustMPH,Humidity,HourlyPrecipIn,Conditions,Clouds,dailyrainin,SoftwareType,DateUTC
2013-02-28 00:01:00,30.7,-5.6,30.36,WSW,249,13.6,13.6,20,-99.99,,---,-99.99,VWS V14.01,2013-02-28 08:01:00,
2013-02-28 00:06:00,30.7,-5.6,30.36,WSW,258,11.9,11.9,20,-99.99,,---,-99.99,VWS V14.01,2013-02-28 08:06:00,
2013-02-28 00:11:00,30.7,-5.6,30.36,WSW,250,13.2,13.2,20,-99.99,,---,-99.99,VWS V14.01,2013-02-28 08:11:00,
2013-02-28 00:16:00,30.7,-5.6,30.36,WSW,254,12.8,12.8,20,-99.99,,---,-99.99,VWS V14.01,2013-02-28 08:16:00,
2013-02-28 00:21:00,30.7,-5.6,30.36,WSW,254,11.0,11.0,20,-99.99,,---,-99.99,VWS V14.01,2013-02-28 08:21:00,
2013-02-28 00:26:00,30.4,-5.9,30.36,WSW,246,10.5,10.5,20,-99.99,,---,-99.99,VWS V14.01,2013-02-28 08:26:00,
2013-02-28 00:31:00,30.4,-5.9,30.36,West,260,12.3,12.3,20,-99.99,,---,-99.99,VWS V14.01,2013-02-28 08:31:00,
2013-02-28 00:36:00,30.4,-5.9,30.36,West,259,12.8,12.8,20,-99.99,,---,-99.99,VWS V14.01,2013-02-28 08:36:00,
2013-02-28 00:41:00,30.4,-5.9,30.36,West,259,12.8,12.8,20,-99.99,,---,-99.99,VWS V14.01,2013-02-28 08:41:00,
2013-02-28 00:46:00,30.4,-5.9,30.36,West,260,10.5,10.5,20,-99.99,,---,-99.99,VWS V14.01,2013-02-28 08:46:00,
2013-02-28 00:51:00,30.2,-6.0,30.36,West,261,12.8,12.8,20,-99.99,,---,-99.99,VWS V14.01,2013-02-28 08:51:00,
2013-02-28 00:56:00,30.2,-6.0,30.36,WSW,258,10.5,10.5,20,-99.99,,---,-99.99,VWS V14.01,2013-02-28 08:56:00,
2013-02-28 01:01:00,30.2,-6.0,30.36,WSW,258,11.9,11.9,20,-99.99,,---,-99.99,VWS V14.01,2013-02-28 09:01:00,
2013-02-28 01:06:00,30.2,-6.0,30.36,West,259,11.0,12.8,20,-99.99,,---,-99.99,VWS V14.01,2013-02-28 09:06:00,
2013-02-28 01:11:00,30.2,-6.0,30.36,West,259,12.8,12.8,20,-99.99,,---,-99.99,VWS V14.01,2013-02-28 09:11:00,
2013-02-28 01:16:00,30.2,-6.0,30.36,West,261,11.0,12.8,20,-99.99,,---,-99.99,VWS V14.01,2013-02-28 09:16:00,
2013-02-28 01:21:00,30.2,-6.0,30.36,WSW,255,13.2,13.2,20,-99.99,,---,-99.99,VWS V14.01,2013-02-28 09:21:00,
2013-02-28 01:26:00,30.2,-6.0,30.36,WSW,253,13.2,13.2,20,-99.99,,---,-99.99,VWS V14.01,2013-02-28 09:26:00,
2013-02-28 01:31:00,30.2,-6.0,30.36,WSW,251,13.2,13.2,20,-99.99,,---,-99.99,VWS V14.01,2013-02-28 09:31:00,
2013-02-28 01:36:00,30.2,-6.0,30.36,WSW,248,13.2,13.2,20,-99.99,,---,-99.99,VWS V14.01,2013-02-28 09:36:00,
2013-02-28 01:41:00,30.2,-6.0,30.36,WSW,254,14.5,14.5,20,-99.99,,---,-99.99,VWS V14.01,2013-02-28 09:41:00,
2013-02-28 01:46:00,30.2,-6.0,30.36,WSW,254,13.6,13.6,20,-99.99,,---,-99.99,VWS V14.01,2013-02-28 09:46:00,
2013-02-28 01:51:00,30.2,-6.0,30.36,West,260,13.6,13.6,20,-99.99,,---,-99.99,VWS V14.01,2013-02-28 09:51:00,
2013-02-28 01:56:00,30.2,-6.0,30.36,WSW,255,13.2,13.2,20,-99.99,,---,-99.99,VWS V14.01,2013-02-28 09:56:00,
2013-02-28 02:01:00,30.2,-6.0,30.36,West,259,15.4,15.4,20,-99.99,,---,-99.99,VWS V14.01,2013-02-28 10:01:00,
2013-02-28 02:06:00,30.2,-6.0,30.36,WSW,253,12.8,12.8,20,-99.99,,---,-99.99,VWS V14.01,2013-02-28 10:06:00,
2013-02-28 02:11:00,30.2,-6.0,30.36,WSW,258,13.6,13.6,20,-99.99,,---,-99.99,VWS V14.01,2013-02-28 10:11:00,
2013-02-28 02:17:00,30.2,-6.0,30.36,WSW,258,11.0,11.0,20,-99.99,,---,-99.99,VWS V14.01,2013-02-28 10:17:00,
2013-02-28 02:22:00,30.2,-6.0,30.36,West,262,12.8,12.8,20,-99.99,,---,-99.99,VWS V14.01,2013-02-28 10:22:00,
2013-02-28 02:27:00,30.2,-6.0,30.36,WSW,257,13.2,13.2,20,-99.99,,---,-99.99,VWS V14.01,2013-02-28 10:27:00,
2013-02-28 02:32:00,30.2,-6.0,30.36,West,265,14.1,14.1,20,-99.99,,---,-99.99,VWS V14.01,2013-02-28 10:32:00,
2013-02-28 02:37:00,30.2,-6.0,30.36,West,260,13.2,13.2,20,-99.99,,---,-99.99,VWS V14.01,2013-02-28 10:37:00,
2013-02-28 02:42:00,30.2,-6.0,30.36,WSW,254,12.8,13.6,20,-99.99,,---,-99.99,VWS V14.01,2013-02-28 10:42:00,
2013-02-28 02:47:00,30.2,-6.0,30.36,West,262,14.1,14.1,20,-99.99,,---,-99.99,VWS V14.01,2013-02-28 10:47:00,
2013-02-28 02:52:00,30.2,-6.0,30.36,West,262,12.8,12.8,20,-99.99,,---,-99.99,VWS V14.01,2013-02-28 10:52:00,
2013-02-28 02:57:00,30.2,-6.0,30.36,West,263,15.4,15.4,20,-99.99,,---,-99.99,VWS V14.01,2013-02-28 10:57:00,
2013-02-28 03:02:00,30.2,-6.0,30.36,West,267,13.2,13.2,20,-99.99,,---,-99.99,VWS V14.01,2013-02-28 11:02:00,
2013-02-28 03:07:00,30.2,-6.0,30.36,West,261,12.3,12.3,20,-99.99,,---,-99.99,VWS V14.01,2013-02-28 11:07:00,
2013-02-28 03:12:00,30.4,-5.9,30.36,West,263,12.8,13.2,20,-99.99,,---,-99.99,VWS V14.01,2013-02-28 11:12:00,
2013-02-28 03:17:00,30.4,-5.9,30.36,West,264,12.3,12.3,20,-99.99,,---,-99.99,VWS V14.01,2013-02-28 11:17:00,
2013-02-28 03:22:00,30.4,-5.9,30.36,WSW,256,15.0,15.0,20,-99.99,,---,-99.99,VWS V14.01,2013-02-28 11:22:00,
2013-02-28 03:27:00,30.4,-5.9,30.36,West,264,12.8,12.8,20,-99.99,,---,-99.99,VWS V14.01,2013-02-28 11:27:00,
2013-02-28 03:32:00,30.6,-5.7,30.36,West,265,15.0,15.0,20,-99.99,,---,-99.99,VWS V14.01,2013-02-28 11:32:00,
2013-02-28 03:37:00,30.6,-5.7,30.36,West,259,13.2,13.2,20,-99.99,,---,-99.99,VWS V14.01,2013-02-28 11:37:00,
2013-02-28 03:42:00,30.6,-5.7,30.36,West,265,12.8,12.8,20,-99.99,,---,-99.99,VWS V14.01,2013-02-28 11:42:00,
2013-02-28 03:47:00,30.6,-5.7,30.36,West,264,11.0,11.0,20,-99.99,,---,-99.99,VWS V14.01,2013-02-28 11:47:00,
2013-02-28 03:52:00,30.6,-5.7,30.36,West,263,12.3,12.8,20,-99.99,,---,-99.99,VWS V14.01,2013-02-28 11:52:00,
2013-02-28 03:57:00,30.9,-5.4,30.36,West,268,13.6,13.6,20,-99.99,,---,-99.99,VWS V14.01,2013-02-28 11:57:00,
2013-02-28 04:02:00,30.9,-5.4,30.36,West,264,13.2,13.2,20,-99.99,,---,-99.99,VWS V14.01,2013-02-28 12:02:00,
2013-02-28 04:07:00,30.9,-5.4,30.36,West,264,17.0,17.0,20,-99.99,,---,-99.99,VWS V14.01,2013-02-28 12:07:00,
2013-02-28 04:12:00,30.9,-5.4,30.36,West,267,17.0,17.0,20,-99.99,,---,-99.99,VWS V14.01,2013-02-28 12:12:00,
2013-02-28 04:17:00,30.9,-5.4,30.36,West,264,13.2,13.2,20,-99.99,,---,-99.99,VWS V14.01,2013-02-28 12:17:00,
2013-02-28 04:22:00,30.9,-5.4,30.36,West,264,13.2,13.2,20,-99.99,,---,-99.99,VWS V14.01,2013-02-28 12:22:00,
2013-02-28 04:27:00,30.9,-5.4,30.36,West,266,15.4,15.4,20,-99.99,,---,-99.99,VWS V14.01,2013-02-28 12:27:00,
2013-02-28 04:32:00,30.9,-5.4,30.36,West,265,15.0,15.0,20,-99.99,,---,-99.99,VWS V14.01,2013-02-28 12:32:00,
2013-02-28 04:37:00,30.9,-5.4,30.36,West,272,15.0,15.0,20,-99.99,,---,-99.99,VWS V14.01,2013-02-28 12:37:00,
2013-02-28 04:42:00,32.2,-4.4,30.36,West,267,16.8,16.8,20,-99.99,,---,-99.99,VWS V14.01,2013-02-28 12:42:00,
2013-02-28 04:47:00,32.2,-4.4,30.36,West,276,17.4,17.4,20,-99.99,,---,-99.99,VWS V14.01,2013-02-28 12:47:00,
2013-02-28 04:52:00,32.2,-4.4,30.36,West,270,15.4,15.4,20,-99.99,,---,-99.99,VWS V14.01,2013-02-28 12:52:00,
2013-02-28 04:57:00,32.2,-4.4,30.36,West,274,13.2,13.2,20,-99.99,,---,-99.99,VWS V14.01,2013-02-28 12:57:00,
2013-02-28 05:02:00,32.2,-4.4,30.36,West,274,16.8,16.8,20,-99.99,,---,-99.99,VWS V14.01,2013-02-28 13:02:00,
2013-02-28 05:07:00,32.2,-4.4,30.36,West,275,13.2,13.2,20,-99.99,,---,-99.99,VWS V14.01,2013-02-28 13:07:00,
2013-02-28 05:12:00,32.2,-4.4,30.36,West,274,15.0,15.0,20,-99.99,,---,-99.99,VWS V14.01,2013-02-28 13:12:00,
2013-02-28 05:17:00,32.2,-4.4,30.36,West,272,13.2,13.2,20,-99.99,,---,-99.99,VWS V14.01,2013-02-28 13:17:00,
2013-02-28 05:22:00,32.2,-4.4,30.36,West,267,13.2,13.2,20,-99.99,,---,-99.99,VWS V14.01,2013-02-28 13:22:00,
2013-02-28 05:27:00,32.2,-4.4,30.36,West,273,15.4,15.4,20,-99.99,,---,-99.99,VWS V14.01,2013-02-28 13:27:00,
2013-02-28 05:32:00,32.0,-4.5,30.36,West,265,15.0,15.0,20,-99.99,,---,-99.99,VWS V14.01,2013-02-28 13:32:00,
2013-02-28 05:37:00,32.0,-4.5,30.36,West,271,12.8,12.8,20,-99.99,,---,-99.99,VWS V14.01,2013-02-28 13:37:00,
2013-02-28 05:43:00,32.0,-4.5,30.36,West,268,13.2,13.6,20,-99.99,,---,-99.99,VWS V14.01,2013-02-28 13:43:00,
2013-02-28 05:48:00,32.0,-4.5,30.36,West,263,11.9,11.9,20,-99.99,,---,-99.99,VWS V14.01,2013-02-28 13:48:00,
2013-02-28 05:53:00,32.0,-4.5,30.36,West,272,13.2,13.2,20,-99.99,,---,-99.99,VWS V14.01,2013-02-28 13:53:00,
2013-02-28 05:58:00,32.2,-4.4,30.36,West,272,14.5,14.5,20,-99.99,,---,-99.99,VWS V14.01,2013-02-28 13:58:00,
2013-02-28 06:03:00,32.4,-4.2,30.36,West,275,15.9,15.9,20,-99.99,,---,-99.99,VWS V14.01,2013-02-28 14:03:00,
2013-02-28 06:08:00,32.4,-4.2,30.36,West,274,13.2,13.2,20,-99.99,,---,-99.99,VWS V14.01,2013-02-28 14:08:00,
2013-02-28 06:13:00,32.4,-4.2,30.36,West,273,13.6,13.6,20,-99.99,,---,-99.99,VWS V14.01,2013-02-28 14:13:00,
2013-02-28 06:18:00,32.2,-4.4,30.36,West,266,13.2,13.2,20,-99.99,,---,-99.99,VWS V14.01,2013-02-28 14:18:00,
2013-02-28 06:23:00,32.4,-4.2,30.36,West,275,12.3,13.2,20,-99.99,,---,-99.99,VWS V14.01,2013-02-28 14:23:00,
2013-02-28 06:28:00,32.4,-4.2,30.36,West,270,13.2,13.2,20,-99.99,,---,-99.99,VWS V14.01,2013-02-28 14:28:00,
2013-02-28 06:33:00,32.5,-4.1,30.36,West,270,11.9,11.9,20,-99.99,,---,-99.99,VWS V14.01,2013-02-28 14:33:00,
2013-02-28 06:38:00,32.7,-3.9,30.36,West,268,12.3,12.3,20,-99.99,,---,-99.99,VWS V14.01,2013-02-28 14:38:00,
2013-02-28 06:43:00,32.9,-3.8,30.36,West,265,12.3,12.3,20,-99.99,,---,-99.99,VWS V14.01,2013-02-28 14:43:00,
2013-02-28 06:48:00,33.3,-3.5,30.36,West,267,12.8,12.8,20,-99.99,,---,-99.99,VWS V14.01,2013-02-28 14:48:00,
2013-02-28 06:53:00,33.3,-3.5,30.36,West,270,10.5,10.5,20,-99.99,,---,-99.99,VWS V14.01,2013-02-28 14:53:00,
2013-02-28 06:58:00,33.8,-3.0,30.36,West,268,11.0,13.6,20,-99.99,,---,-99.99,VWS V14.01,2013-02-28 14:58:00,
2013-02-28 07:03:00,34.0,-2.9,30.36,West,274,11.4,11.4,20,-99.99,,---,-99.99,VWS V14.01,2013-02-28 15:03:00,
2013-02-28 07:08:00,34.0,-2.9,30.36,West,274,10.5,10.5,20,-99.99,,---,-99.99,VWS V14.01,2013-02-28 15:08:00,
2013-02-28 07:13:00,34.7,-2.3,30.36,West,267,10.5,10.5,20,-99.99,,---,-99.99,VWS V14.01,2013-02-28 15:13:00,
2013-02-28 07:18:00,34.7,-2.3,30.36,West,270,13.2,13.2,20,-99.99,,---,-99.99,VWS V14.01,2013-02-28 15:18:00,
2013-02-28 07:23:00,35.4,-1.6,30.36,West,263,12.3,12.3,20,-99.99,,---,-99.99,VWS V14.01,2013-02-28 15:23:00,
2013-02-28 07:28:00,35.8,-2.4,30.36,WSW,253,15.0,15.0,19,-99.99,,---,-99.99,VWS V14.01,2013-02-28 15:28:00,
2013-02-28 07:33:00,36.0,-2.3,30.36,West,262,12.3,12.3,19,-99.99,,---,-99.99,VWS V14.01,2013-02-28 15:33:00,
2013-02-28 07:38:00,36.3,-2.0,30.36,West,269,11.0,11.0,19,-99.99,,---,-99.99,VWS V14.01,2013-02-28 15:38:00,
2013-02-28 07:43:00,36.3,-2.0,30.36,West,274,10.5,10.5,19,-99.99,,---,-99.99,VWS V14.01,2013-02-28 15:43:00,
2013-02-28 07:48:00,36.7,1.4,30.39,West,268,12.8,12.8,22,-99.99,,---,-99.99,VWS V14.01,2013-02-28 15:48:00,
2013-02-28 07:53:00,36.9,1.6,30.39,West,259,8.3,8.3,22,-99.99,,---,-99.99,VWS V14.01,2013-02-28 15:53:00,
2013-02-28 07:58:00,37.0,-1.4,30.39,West,259,8.3,8.3,19,-99.99,,---,-99.99,VWS V14.01,2013-02-28 15:58:00,
2013-02-28 08:03:00,37.2,1.9,30.39,West,259,8.3,8.3,22,-99.99,,---,-99.99,VWS V14.01,2013-02-28 16:03:00,
2013-02-28 08:08:00,37.2,1.9,30.39,West,281,10.1,10.1,22,-99.99,,---,-99.99,VWS V14.01,2013-02-28 16:08:00,
2013-02-28 08:13:00,37.4,1.0,30.39,West,281,10.1,10.1,21,-99.99,,---,-99.99,VWS V14.01,2013-02-28 16:13:00,
2013-02-28 08:18:00,37.4,1.0,30.39,West,281,10.1,10.1,21,-99.99,,---,-99.99,VWS V14.01,2013-02-28 16:18:00,
2013-02-28 08:23:00,37.8,1.4,30.39,West,281,10.1,10.1,21,-99.99,,---,-99.99,VWS V14.01,2013-02-28 16:23:00,
2013-02-28 08:28:00,38.1,1.6,30.39,West,281,10.1,10.1,21,-99.99,,---,-99.99,VWS V14.01,2013-02-28 16:28:00,
2013-02-28 08:33:00,38.1,1.6,30.39,West,281,10.1,10.1,21,-99.99,,---,-99.99,VWS V14.01,2013-02-28 16:33:00,
2013-02-28 08:38:00,38.1,1.6,30.39,West,281,10.1,10.1,21,-99.99,,---,-99.99,VWS V14.01,2013-02-28 16:38:00,
2013-02-28 08:43:00,38.3,1.8,30.39,West,281,10.1,10.1,21,-99.99,,---,-99.99,VWS V14.01,2013-02-28 16:43:00,
2013-02-28 08:49:00,38.3,1.8,30.39,West,281,10.1,10.1,21,-99.99,,---,-99.99,VWS V14.01,2013-02-28 16:49:00,
2013-02-28 08:54:00,38.3,1.8,30.39,West,281,10.1,10.1,21,-99.99,,---,-99.99,VWS V14.01,2013-02-28 16:54:00,
2013-02-28 08:59:00,38.5,2.0,30.39,West,281,10.1,10.1,21,-99.99,,---,-99.99,VWS V14.01,2013-02-28 16:59:00,
2013-02-28 09:04:00,38.5,2.0,30.39,West,281,10.1,10.1,21,-99.99,,---,-99.99,VWS V14.01,2013-02-28 17:04:00,
2013-02-28 09:09:00,38.5,2.0,30.39,West,281,10.1,10.1,21,-99.99,,---,-99.99,VWS V14.01,2013-02-28 17:09:00,
2013-02-28 09:14:00,38.7,2.1,30.39,West,281,10.1,10.1,21,-99.99,,---,-99.99,VWS V14.01,2013-02-28 17:14:00,
2013-02-28 09:19:00,38.7,2.1,30.39,West,281,10.1,10.1,21,-99.99,,---,-99.99,VWS V14.01,2013-02-28 17:19:00,
2013-02-28 09:24:00,39.2,2.6,30.39,West,281,10.1,10.1,21,-99.99,,---,-99.99,VWS V14.01,2013-02-28 17:24:00,
2013-02-28 09:29:00,39.2,2.6,30.39,West,281,10.1,10.1,21,-99.99,,---,-99.99,VWS V14.01,2013-02-28 17:29:00,
2013-02-28 09:34:00,39.4,2.7,30.39,West,281,10.1,10.1,21,-99.99,,---,-99.99,VWS V14.01,2013-02-28 17:34:00,
2013-02-28 09:39:00,39.4,2.7,30.39,West,281,10.1,10.1,21,-99.99,,---,-99.99,VWS V14.01,2013-02-28 17:39:00,
2013-02-28 09:44:00,39.6,2.9,30.39,West,281,10.1,10.1,21,-99.99,,---,-99.99,VWS V14.01,2013-02-28 17:44:00,
2013-02-28 09:49:00,40.3,3.5,30.39,West,281,10.1,10.1,21,-99.99,,---,-99.99,VWS V14.01,2013-02-28 17:49:00,
2013-02-28 09:54:00,40.3,3.5,30.39,West,281,10.1,10.1,21,-99.99,,---,-99.99,VWS V14.01,2013-02-28 17:54:00,
2013-02-28 09:59:00,41.4,4.4,30.39,West,281,10.1,10.1,21,-99.99,,---,-99.99,VWS V14.01,2013-02-28 17:59:00,
2013-02-28 10:04:00,41.0,4.1,30.39,West,281,10.1,10.1,21,-99.99,,---,-99.99,VWS V14.01,2013-02-28 18:04:00,
2013-02-28 10:09:00,41.0,4.1,30.39,West,281,10.1,10.1,21,-99.99,,---,-99.99,VWS V14.01,2013-02-28 18:09:00,
2013-02-28 10:14:00,41.7,4.7,30.39,West,281,10.1,10.1,21,-99.99,,---,-99.99,VWS V14.01,2013-02-28 18:14:00,
2013-02-28 10:19:00,41.7,4.7,30.39,West,281,10.1,10.1,21,-99.99,,---,-99.99,VWS V14.01,2013-02-28 18:19:00,
2013-02-28 10:24:00,41.5,4.5,30.39,West,281,10.1,10.1,21,-99.99,,---,-99.99,VWS V14.01,2013-02-28 18:24:00,
2013-02-28 10:29:00,41.5,4.5,30.39,West,281,10.1,10.1,21,-99.99,,---,-99.99,VWS V14.01,2013-02-28 18:29:00,
2013-02-28 10:34:00,42.6,5.4,30.39,West,281,10.1,10.1,21,-99.99,,---,-99.99,VWS V14.01,2013-02-28 18:34:00,
2013-02-28 10:39:00,43.3,5.0,30.39,West,281,10.1,10.1,20,-99.99,,---,-99.99,VWS V14.01,2013-02-28 18:39:00,
2013-02-28 10:44:00,43.5,5.1,30.39,West,281,10.1,10.1,20,-99.99,,---,-99.99,VWS V14.01,2013-02-28 18:44:00,
2013-02-28 10:49:00,43.5,5.1,30.39,West,281,10.1,10.1,20,-99.99,,---,-99.99,VWS V14.01,2013-02-28 18:49:00,
2013-02-28 10:54:00,43.5,5.1,30.39,West,281,10.1,10.1,20,-99.99,,---,-99.99,VWS V14.01,2013-02-28 18:54:00,
2013-02-28 10:59:00,43.7,5.3,30.39,West,281,10.1,10.1,20,-99.99,,---,-99.99,VWS V14.01,2013-02-28 18:59:00,
2013-02-28 11:04:00,43.7,5.3,30.39,West,281,0.0,0.0,20,-99.99,,---,-99.99,VWS V14.01,2013-02-28 19:04:00,
2013-02-28 11:09:00,43.7,5.3,30.39,West,281,0.0,0.0,20,-99.99,,---,-99.99,VWS V14.01,2013-02-28 19:09:00,
2013-02-28 11:14:00,44.1,5.6,30.39,West,281,0.0,0.0,20,-99.99,,---,-99.99,VWS V14.01,2013-02-28 19:14:00,
2013-02-28 11:19:00,44.1,5.6,30.39,West,281,0.0,0.0,20,-99.99,,---,-99.99,VWS V14.01,2013-02-28 19:19:00,
2013-02-28 11:24:00,44.1,5.6,30.39,West,281,0.0,0.0,20,-99.99,,---,-99.99,VWS V14.01,2013-02-28 19:24:00,
2013-02-28 11:29:00,44.1,5.6,30.39,West,281,0.0,0.0,20,-99.99,,---,-99.99,VWS V14.01,2013-02-28 19:29:00,
2013-02-28 11:34:00,45.0,6.3,30.39,West,281,0.0,0.0,20,-99.99,,---,-99.99,VWS V14.01,2013-02-28 19:34:00,
2013-02-28 11:39:00,44.8,6.2,30.39,West,281,0.0,0.0,20,-99.99,,---,-99.99,VWS V14.01,2013-02-28 19:39:00,
2013-02-28 11:44:00,44.8,6.2,30.39,West,281,0.0,0.0,20,-99.99,,---,-99.99,VWS V14.01,2013-02-28 19:44:00,
2013-02-28 11:49:00,45.5,6.8,30.39,West,281,0.0,0.0,20,-99.99,,---,-99.99,VWS V14.01,2013-02-28 19:49:00,
2013-02-28 11:54:00,45.5,6.8,30.39,West,281,0.0,0.0,20,-99.99,,---,-99.99,VWS V14.01,2013-02-28 19:54:00,
2013-02-28 11:59:00,46.2,7.4,30.39,West,281,0.0,0.0,20,-99.99,,---,-99.99,VWS V14.01,2013-02-28 19:59:00,
2013-02-28 12:04:00,46.6,6.5,30.39,West,281,0.0,0.0,19,-99.99,,---,-99.99,VWS V14.01,2013-02-28 20:04:00,
2013-02-28 12:09:00,46.6,6.5,30.39,West,281,0.0,0.0,19,-99.99,,---,-99.99,VWS V14.01,2013-02-28 20:09:00,
2013-02-28 12:14:00,48.2,7.9,30.39,West,281,0.0,0.0,19,-99.99,,---,-99.99,VWS V14.01,2013-02-28 20:14:00,
2013-02-28 12:19:00,48.2,7.9,30.36,West,281,0.0,0.0,19,-99.99,,---,-99.99,VWS V14.01,2013-02-28 20:19:00,
2013-02-28 12:24:00,48.9,8.5,30.36,West,281,0.0,0.0,19,-99.99,,---,-99.99,VWS V14.01,2013-02-28 20:24:00,
2013-02-28 12:29:00,48.9,8.5,30.36,West,281,0.0,0.0,19,-99.99,,---,-99.99,VWS V14.01,2013-02-28 20:29:00,
2013-02-28 12:34:00,49.3,8.8,30.36,West,281,0.0,0.0,19,-99.99,,---,-99.99,VWS V14.01,2013-02-28 20:34:00,
2013-02-28 12:40:00,49.8,9.2,30.36,West,281,0.0,0.0,19,-99.99,,---,-99.99,VWS V14.01,2013-02-28 20:40:00,
2013-02-28 12:45:00,49.6,9.1,30.36,West,281,0.0,0.0,19,-99.99,,---,-99.99,VWS V14.01,2013-02-28 20:45:00,
2013-02-28 12:49:00,50.7,10.0,30.36,West,281,0.0,0.0,19,-99.99,,---,-99.99,VWS V14.01,2013-02-28 20:49:00,
2013-02-28 12:55:00,50.7,10.0,30.36,West,281,0.0,0.0,19,-99.99,,---,-99.99,VWS V14.01,2013-02-28 20:55:00,
2013-02-28 13:00:00,50.2,9.5,30.36,West,281,0.0,0.0,19,-99.99,,---,-99.99,VWS V14.01,2013-02-28 21:00:00,
2013-02-28 13:05:00,50.0,9.4,30.36,West,281,0.0,0.0,19,-99.99,,---,-99.99,VWS V14.01,2013-02-28 21:05:00,
2013-02-28 13:10:00,50.2,9.5,30.36,West,281,0.0,0.0,19,-99.99,,---,-99.99,VWS V14.01,2013-02-28 21:10:00,
2013-02-28 13:15:00,49.5,8.9,30.36,West,281,0.0,0.0,19,-99.99,,---,-99.99,VWS V14.01,2013-02-28 21:15:00,
2013-02-28 13:20:00,49.6,9.1,30.36,West,281,0.0,0.0,19,-99.99,,---,-99.99,VWS V14.01,2013-02-28 21:20:00,
2013-02-28 13:25:00,51.6,10.7,30.36,West,281,0.0,0.0,19,-99.99,,---,-99.99,VWS V14.01,2013-02-28 21:25:00,
2013-02-28 13:30:00,52.5,10.2,30.36,West,281,0.0,0.0,18,-99.99,,---,-99.99,VWS V14.01,2013-02-28 21:30:00,
2013-02-28 13:35:00,53.4,11.0,30.36,West,281,0.0,0.0,18,-99.99,,---,-99.99,VWS V14.01,2013-02-28 21:35:00,
2013-02-28 13:40:00,53.4,11.0,30.36,ESE,104,0.0,0.0,18,-99.99,,---,-99.99,VWS V14.01,2013-02-28 21:40:00,
2013-02-28 13:45:00,53.2,10.9,30.36,ESE,104,0.0,0.0,18,-99.99,,---,-99.99,VWS V14.01,2013-02-28 21:45:00,
2013-02-28 13:50:00,54.0,11.4,30.36,NE,37,0.0,0.0,18,-99.99,,---,-99.99,VWS V14.01,2013-02-28 21:50:00,
2013-02-28 13:55:00,54.0,11.4,30.36,East,92,0.0,0.0,18,-99.99,,---,-99.99,VWS V14.01,2013-02-28 21:55:00,
2013-02-28 14:00:00,54.0,11.4,30.36,East,96,0.0,0.0,18,-99.99,,---,-99.99,VWS V14.01,2013-02-28 22:00:00,
2013-02-28 14:05:00,54.3,11.7,30.36,ENE,69,0.0,0.0,18,-99.99,,---,-99.99,VWS V14.01,2013-02-28 22:05:00,
2013-02-28 14:10:00,54.1,11.6,30.36,NNE,29,0.0,0.0,18,-99.99,,---,-99.99,VWS V14.01,2013-02-28 22:10:00,
2013-02-28 14:15:00,54.1,11.6,30.36,ENE,72,0.0,0.0,18,-99.99,,---,-99.99,VWS V14.01,2013-02-28 22:15:00,
2013-02-28 14:20:00,54.1,11.6,30.36,NE,51,0.0,0.0,18,-99.99,,---,-99.99,VWS V14.01,2013-02-28 22:20:00,
2013-02-28 14:25:00,54.1,11.6,30.36,ENE,60,0.0,0.0,18,-99.99,,---,-99.99,VWS V14.01,2013-02-28 22:25:00,
2013-02-28 14:30:00,54.1,11.6,30.36,NE,43,0.0,0.0,18,-99.99,,---,-99.99,VWS V14.01,2013-02-28 22:30:00,
2013-02-28 14:35:00,54.1,11.6,30.36,NNE,32,0.0,0.0,18,-99.99,,---,-99.99,VWS V14.01,2013-02-28 22:35:00,
2013-02-28 14:40:00,54.1,11.6,30.36,NNE,15,0.0,0.0,18,-99.99,,---,-99.99,VWS V14.01,2013-02-28 22:40:00,
2013-02-28 14:45:00,52.2,10.0,30.36,NE,44,0.0,0.0,18,-99.99,,---,-99.99,VWS V14.01,2013-02-28 22:45:00,
2013-02-28 14:50:00,52.2,10.0,30.36,NE,44,0.0,0.0,18,-99.99,,---,-99.99,VWS V14.01,2013-02-28 22:50:00,
2013-02-28 14:55:00,52.2,10.0,30.36,NNE,32,0.0,0.0,18,-99.99,,---,-99.99,VWS V14.01,2013-02-28 22:55:00,
2013-02-28 15:00:00,52.2,10.0,30.36,NNE,25,0.0,0.0,18,-99.99,,---,-99.99,VWS V14.01,2013-02-28 23:00:00,
2013-02-28 15:05:00,52.2,10.0,30.36,ENE,73,0.0,0.0,18,-99.99,,---,-99.99,VWS V14.01,2013-02-28 23:05:00,
2013-02-28 15:10:00,52.2,10.0,30.36,ENE,63,0.0,0.0,18,-99.99,,---,-99.99,VWS V14.01,2013-02-28 23:10:00,
2013-02-28 15:15:00,52.2,10.0,30.36,NE,35,0.0,0.0,18,-99.99,,---,-99.99,VWS V14.01,2013-02-28 23:15:00,
2013-02-28 15:20:00,50.4,9.7,30.36,NE,35,0.0,0.0,19,-99.99,,---,-99.99,VWS V14.01,2013-02-28 23:20:00,
2013-02-28 15:25:00,50.4,9.7,30.36,NE,34,0.0,0.0,19,-99.99,,---,-99.99,VWS V14.01,2013-02-28 23:25:00,
2013-02-28 15:30:00,50.4,9.7,30.36,NNE,23,0.0,0.0,19,-99.99,,---,-99.99,VWS V14.01,2013-02-28 23:30:00,
2013-02-28 15:35:00,50.4,9.7,30.36,NNE,24,0.0,0.0,19,-99.99,,---,-99.99,VWS V14.01,2013-02-28 23:35:00,
2013-02-28 15:40:00,50.4,9.7,30.36,NE,37,0.0,0.0,19,-99.99,,---,-99.99,VWS V14.01,2013-02-28 23:40:00,
2013-02-28 15:45:00,50.4,9.7,30.36,ENE,70,0.0,0.0,19,-99.99,,---,-99.99,VWS V14.01,2013-02-28 23:45:00,
2013-02-28 15:50:00,50.4,9.7,30.36,ENE,72,0.0,0.0,19,-99.99,,---,-99.99,VWS V14.01,2013-02-28 23:50:00,
2013-02-28 15:55:00,50.4,9.7,30.36,NE,37,0.0,0.0,19,-99.99,,---,-99.99,VWS V14.01,2013-02-28 23:55:00,
2013-02-28 16:00:00,48.9,8.5,30.36,NNE,23,0.0,0.0,19,-99.99,,---,-99.99,VWS V14.01,2013-03-01 00:00:00,
2013-02-28 16:05:00,48.9,8.5,30.36,NNE,23,0.0,0.0,19,-99.99,,---,-99.99,VWS V14.01,2013-03-01 00:05:00,
2013-02-28 16:10:00,48.9,8.5,30.36,NE,46,0.0,0.0,19,-99.99,,---,-99.99,VWS V14.01,2013-03-01 00:10:00,
2013-02-28 16:15:00,48.9,8.5,30.36,NNE,28,0.0,0.0,19,-99.99,,---,-99.99,VWS V14.01,2013-03-01 00:15:00,
2013-02-28 16:20:00,48.9,8.5,30.36,NE,55,0.0,0.0,19,-99.99,,---,-99.99,VWS V14.01,2013-03-01 00:20:00,
2013-02-28 16:25:00,47.3,7.1,30.36,NE,44,0.0,0.0,19,-99.99,,---,-99.99,VWS V14.01,2013-03-01 00:25:00,
2013-02-28 16:30:00,47.3,7.1,30.36,NE,48,0.0,0.0,19,-99.99,,---,-99.99,VWS V14.01,2013-03-01 00:30:00,
2013-02-28 16:35:00,46.6,6.5,30.36,NE,36,0.0,0.0,19,-99.99,,---,-99.99,VWS V14.01,2013-03-01 00:35:00,
2013-02-28 16:41:00,46.6,6.5,30.36,ENE,69,0.0,0.0,19,-99.99,,---,-99.99,VWS V14.01,2013-03-01 00:41:00,
2013-02-28 16:46:00,46.6,6.5,30.36,NE,41,0.0,0.0,19,-99.99,,---,-99.99,VWS V14.01,2013-03-01 00:46:00,
2013-02-28 16:51:00,46.6,6.5,30.36,NE,41,0.0,0.0,19,-99.99,,---,-99.99,VWS V14.01,2013-03-01 00:51:00,
2013-02-28 16:55:00,46.6,6.5,30.36,NE,49,0.0,0.0,19,-99.99,,---,-99.99,VWS V14.01,2013-03-01 00:55:00,
2013-02-28 17:01:00,46.6,6.5,30.36,NE,49,0.0,0.0,19,-99.99,,---,-99.99,VWS V14.01,2013-03-01 01:01:00,
2013-02-28 17:06:00,46.6,6.5,30.36,NE,56,0.0,0.0,19,-99.99,,---,-99.99,VWS V14.01,2013-03-01 01:06:00,
2013-02-28 17:10:00,45.0,6.3,30.36,NE,49,0.0,0.0,20,-99.99,,---,-99.99,VWS V14.01,2013-03-01 01:10:00,
2013-02-28 17:16:00,45.0,6.3,30.36,NE,40,0.0,0.0,20,-99.99,,---,-99.99,VWS V14.01,2013-03-01 01:16:00,
2013-02-28 17:21:00,45.0,6.3,30.36,NE,41,0.0,0.0,20,-99.99,,---,-99.99,VWS V14.01,2013-03-01 01:21:00,
2013-02-28 17:26:00,45.0,6.3,30.36,NE,41,0.0,0.0,20,-99.99,,---,-99.99,VWS V14.01,2013-03-01 01:26:00,
2013-02-28 17:31:00,45.0,6.3,30.39,NE,37,0.0,0.0,20,-99.99,,---,-99.99,VWS V14.01,2013-03-01 01:31:00,
2013-02-28 17:36:00,42.1,5.0,30.39,NNE,21,0.0,0.0,21,-99.99,,---,-99.99,VWS V14.01,2013-03-01 01:36:00,
2013-02-28 17:41:00,42.1,5.0,30.39,North,353,0.0,0.0,21,-99.99,,---,-99.99,VWS V14.01,2013-03-01 01:41:00,
2013-02-28 17:46:00,42.1,5.0,30.39,North,353,0.0,0.0,21,-99.99,,---,-99.99,VWS V14.01,2013-03-01 01:46:00,
2013-02-28 17:51:00,42.1,5.0,30.39,North,353,0.0,0.0,21,-99.99,,---,-99.99,VWS V14.01,2013-03-01 01:51:00,
2013-02-28 17:56:00,42.1,5.0,30.39,North,353,0.0,0.0,21,-99.99,,---,-99.99,VWS V14.01,2013-03-01 01:56:00,
2013-02-28 18:01:00,39.9,3.2,30.39,North,353,0.0,0.0,21,-99.99,,---,-99.99,VWS V14.01,2013-03-01 02:01:00,
2013-02-28 18:06:00,39.9,3.2,30.39,North,2,0.0,0.0,21,-99.99,,---,-99.99,VWS V14.01,2013-03-01 02:06:00,
2013-02-28 18:11:00,39.9,3.2,30.39,North,2,0.0,0.0,21,-99.99,,---,-99.99,VWS V14.01,2013-03-01 02:11:00,
2013-02-28 18:16:00,39.9,3.2,30.39,North,357,0.0,0.0,21,-99.99,,---,-99.99,VWS V14.01,2013-03-01 02:16:00,
2013-02-28 18:21:00,39.4,2.7,30.39,North,357,0.0,0.0,21,-99.99,,---,-99.99,VWS V14.01,2013-03-01 02:21:00,
2013-02-28 18:26:00,39.2,2.6,30.39,North,353,0.0,0.0,21,-99.99,,---,-99.99,VWS V14.01,2013-03-01 02:26:00,
2013-02-28 18:31:00,39.2,2.6,30.39,NNW,344,0.0,0.0,21,-99.99,,---,-99.99,VWS V14.01,2013-03-01 02:31:00,
2013-02-28 18:36:00,39.2,2.6,30.39,NNW,344,0.0,0.0,21,-99.99,,---,-99.99,VWS V14.01,2013-03-01 02:36:00,
2013-02-28 18:41:00,39.2,2.6,30.39,NNW,327,0.0,0.0,21,-99.99,,---,-99.99,VWS V14.01,2013-03-01 02:41:00,
2013-02-28 18:46:00,38.1,1.6,30.42,North,353,0.0,0.0,21,-99.99,,---,-99.99,VWS V14.01,2013-03-01 02:46:00,
2013-02-28 18:51:00,38.1,1.6,30.42,North,353,0.0,0.0,21,-99.99,,---,-99.99,VWS V14.01,2013-03-01 02:51:00,
2013-02-28 18:56:00,38.1,1.6,30.42,NNW,344,0.0,0.0,21,-99.99,,---,-99.99,VWS V14.01,2013-03-01 02:56:00,
2013-02-28 19:01:00,38.1,1.6,30.42,NNW,348,0.0,0.0,21,-99.99,,---,-99.99,VWS V14.01,2013-03-01 03:01:00,
2013-02-28 19:06:00,38.1,1.6,30.42,NNW,348,0.0,0.0,21,-99.99,,---,-99.99,VWS V14.01,2013-03-01 03:06:00,
2013-02-28 19:11:00,37.9,1.5,30.42,NNW,348,0.0,0.0,21,-99.99,,---,-99.99,VWS V14.01,2013-03-01 03:11:00,
2013-02-28 19:16:00,37.9,1.5,30.42,North,0,0.0,0.0,21,-99.99,,---,-99.99,VWS V14.01,2013-03-01 03:16:00,
2013-02-28 19:21:00,37.9,1.5,30.42,North,2,0.0,0.0,21,-99.99,,---,-99.99,VWS V14.01,2013-03-01 03:21:00,
2013-02-28 19:26:00,38.1,1.6,30.42,North,357,0.0,0.0,21,-99.99,,---,-99.99,VWS V14.01,2013-03-01 03:26:00,
2013-02-28 19:32:00,37.9,1.5,30.42,North,357,0.0,0.0,21,-99.99,,---,-99.99,VWS V14.01,2013-03-01 03:32:00,
2013-02-28 19:37:00,37.9,1.5,30.42,North,357,0.0,0.0,21,-99.99,,---,-99.99,VWS V14.01,2013-03-01 03:37:00,
2013-02-28 19:41:00,37.9,1.5,30.42,North,357,0.0,0.0,21,-99.99,,---,-99.99,VWS V14.01,2013-03-01 03:41:00,
2013-02-28 19:47:00,37.9,1.5,30.42,North,0,0.0,0.0,21,-99.99,,---,-99.99,VWS V14.01,2013-03-01 03:47:00,
2013-02-28 19:52:00,37.8,1.4,30.42,North,0,0.0,0.0,21,-99.99,,---,-99.99,VWS V14.01,2013-03-01 03:52:00,
2013-02-28 19:57:00,37.9,1.5,30.42,North,0,0.0,0.0,21,-99.99,,---,-99.99,VWS V14.01,2013-03-01 03:57:00,
2013-02-28 20:02:00,38.1,1.6,30.42,North,1,0.0,0.0,21,-99.99,,---,-99.99,VWS V14.01,2013-03-01 04:02:00,
2013-02-28 20:07:00,38.1,1.6,30.42,North,4,0.0,0.0,21,-99.99,,---,-99.99,VWS V14.01,2013-03-01 04:07:00,
2013-02-28 20:12:00,38.1,1.6,30.42,North,4,0.0,0.0,21,-99.99,,---,-99.99,VWS V14.01,2013-03-01 04:12:00,
2013-02-28 20:17:00,37.9,1.5,30.42,North,6,0.0,0.0,21,-99.99,,---,-99.99,VWS V14.01,2013-03-01 04:17:00,
2013-02-28 20:22:00,38.1,1.6,30.42,North,3,0.0,0.0,21,-99.99,,---,-99.99,VWS V14.01,2013-03-01 04:22:00,
2013-02-28 20:27:00,38.1,1.6,30.42,North,3,0.0,0.0,21,-99.99,,---,-99.99,VWS V14.01,2013-03-01 04:27:00,
2013-02-28 20:32:00,37.9,1.5,30.42,North,3,0.0,0.0,21,-99.99,,---,-99.99,VWS V14.01,2013-03-01 04:32:00,
2013-02-28 20:37:00,37.9,1.5,30.42,North,2,0.0,0.0,21,-99.99,,---,-99.99,VWS V14.01,2013-03-01 04:37:00,
2013-02-28 20:42:00,38.1,1.6,30.42,North,4,0.0,0.0,21,-99.99,,---,-99.99,VWS V14.01,2013-03-01 04:42:00,
2013-02-28 20:47:00,38.1,1.6,30.42,North,3,0.0,0.0,21,-99.99,,---,-99.99,VWS V14.01,2013-03-01 04:47:00,
2013-02-28 20:52:00,38.1,1.6,30.42,North,357,0.0,0.0,21,-99.99,,---,-99.99,VWS V14.01,2013-03-01 04:52:00,
2013-02-28 20:57:00,37.9,1.5,30.42,North,8,0.0,0.0,21,-99.99,,---,-99.99,VWS V14.01,2013-03-01 04:57:00,
2013-02-28 21:00:00,37.8,1.4,30.42,North,8,0.0,0.0,21,-99.99,,---,-99.99,VWS V14.01,2013-03-01 05:00:00,
2013-02-28 21:05:00,37.6,1.2,30.45,North,7,0.0,0.0,21,-99.99,,---,-99.99,VWS V14.01,2013-03-01 05:05:00,
2013-02-28 21:06:00,37.6,1.2,30.45,North,7,0.0,0.0,21,-99.99,,---,-99.99,VWS V14.01,2013-03-01 05:06:00,
2013-02-28 21:11:00,37.8,1.4,30.45,North,10,0.0,0.0,21,-99.99,,---,-99.99,VWS V14.01,2013-03-01 05:11:00,
2013-02-28 21:16:00,37.8,1.4,30.45,North,11,0.0,0.0,21,-99.99,,---,-99.99,VWS V14.01,2013-03-01 05:16:00,
2013-02-28 21:21:00,37.8,1.4,30.45,North,11,0.0,0.0,21,-99.99,,---,-99.99,VWS V14.01,2013-03-01 05:21:00,
2013-02-28 21:26:00,37.6,1.2,30.45,North,357,0.0,0.0,21,-99.99,,---,-99.99,VWS V14.01,2013-03-01 05:26:00,
2013-02-28 21:31:00,37.8,1.4,30.45,North,353,0.0,0.0,21,-99.99,,---,-99.99,VWS V14.01,2013-03-01 05:31:00,
2013-02-28 21:36:00,37.8,1.4,30.45,North,0,0.0,0.0,21,-99.99,,---,-99.99,VWS V14.01,2013-03-01 05:36:00,
2013-02-28 21:41:00,37.8,1.4,30.45,North,353,0.0,0.0,21,-99.99,,---,-99.99,VWS V14.01,2013-03-01 05:41:00,
2013-02-28 21:46:00,37.9,1.5,30.45,NNW,337,0.0,0.0,21,-99.99,,---,-99.99,VWS V14.01,2013-03-01 05:46:00,
2013-02-28 21:51:00,37.9,1.5,30.45,NNW,341,0.0,0.0,21,-99.99,,---,-99.99,VWS V14.01,2013-03-01 05:51:00,
2013-02-28 21:56:00,37.9,1.5,30.45,NW,313,0.0,0.0,21,-99.99,,---,-99.99,VWS V14.01,2013-03-01 05:56:00,
2013-02-28 22:01:00,37.8,1.4,30.45,NNW,330,0.0,0.0,21,-99.99,,---,-99.99,VWS V14.01,2013-03-01 06:01:00,
2013-02-28 22:06:00,37.8,1.4,30.45,NW,317,0.0,0.0,21,-99.99,,---,-99.99,VWS V14.01,2013-03-01 06:06:00,
2013-02-28 22:11:00,37.6,1.2,30.45,NNW,328,0.0,0.0,21,-99.99,,---,-99.99,VWS V14.01,2013-03-01 06:11:00,
2013-02-28 22:16:00,37.4,1.0,30.45,WNW,301,0.0,0.0,21,-99.99,,---,-99.99,VWS V14.01,2013-03-01 06:16:00,
2013-02-28 22:21:00,37.4,1.0,30.45,NW,319,0.0,0.0,21,-99.99,,---,-99.99,VWS V14.01,2013-03-01 06:21:00,
2013-02-28 22:26:00,37.2,1.9,30.45,NW,324,0.0,0.0,22,-99.99,,---,-99.99,VWS V14.01,2013-03-01 06:26:00,
2013-02-28 22:31:00,37.2,1.9,30.45,NNW,329,0.0,0.0,22,-99.99,,---,-99.99,VWS V14.01,2013-03-01 06:31:00,
2013-02-28 22:36:00,37.0,-1.4,30.45,NW,326,0.0,0.0,19,-99.99,,---,-99.99,VWS V14.01,2013-03-01 06:36:00,
2013-02-28 22:41:00,36.9,-1.5,30.45,NNW,339,0.0,0.0,19,-99.99,,---,-99.99,VWS V14.01,2013-03-01 06:41:00,
2013-02-28 22:46:00,37.0,1.7,30.45,NNW,327,0.0,0.0,22,-99.99,,---,-99.99,VWS V14.01,2013-03-01 06:46:00,
2013-02-28 22:51:00,37.6,1.2,30.45,NNW,341,0.0,0.0,21,-99.99,,---,-99.99,VWS V14.01,2013-03-01 06:51:00,
2013-02-28 22:56:00,37.6,1.2,30.45,NNW,346,0.0,0.0,21,-99.99,,---,-99.99,VWS V14.01,2013-03-01 06:56:00,
2013-02-28 23:01:00,37.6,1.2,30.45,NNW,346,0.0,0.0,21,-99.99,,---,-99.99,VWS V14.01,2013-03-01 07:01:00,
2013-02-28 23:06:00,37.6,1.2,30.45,NNW,345,0.0,0.0,21,-99.99,,---,-99.99,VWS V14.01,2013-03-01 07:06:00,
2013-02-28 23:11:00,37.6,1.2,30.45,North,353,0.0,0.0,21,-99.99,,---,-99.99,VWS V14.01,2013-03-01 07:11:00,
2013-02-28 23:16:00,37.4,1.0,30.42,NNW,343,0.0,0.0,21,-99.99,,---,-99.99,VWS V14.01,2013-03-01 07:16:00,
2013-02-28 23:21:00,37.6,1.2,30.42,NNW,346,0.0,0.0,21,-99.99,,---,-99.99,VWS V14.01,2013-03-01 07:21:00,
2013-02-28 23:26:00,38.1,1.6,30.45,NNW,345,0.0,0.0,21,-99.99,,---,-99.99,VWS V14.01,2013-03-01 07:26:00,
2013-02-28 23:31:00,38.1,1.6,30.45,NNW,330,0.0,0.0,21,-99.99,,---,-99.99,VWS V14.01,2013-03-01 07:31:00,
2013-02-28 23:36:00,38.3,1.8,30.45,NNW,330,0.0,0.0,21,-99.99,,---,-99.99,VWS V14.01,2013-03-01 07:36:00,
2013-02-28 23:41:00,38.3,1.8,30.45,NNW,333,0.0,0.0,21,-99.99,,---,-99.99,VWS V14.01,2013-03-01 07:41:00,
2013-02-28 23:46:00,37.9,1.5,30.45,NW,322,0.0,0.0,21,-99.99,,---,-99.99,VWS V14.01,2013-03-01 07:46:00,
2013-02-28 23:51:00,37.9,1.5,30.45,NW,322,0.0,0.0,21,-99.99,,---,-99.99,VWS V14.01,2013-03-01 07:51:00,
2013-02-28 23:56:00,37.9,1.5,30.45,NW,319,0.0,0.0,21,-99.99,,---,-99.99,VWS V14.01,2013-03-01 07:56:00,